Location: Newark
(40.1631°N, 15.6720°E)
Time: 16:58:55
(UTC+00:00)

Starlink Launch 2 leader - Visible Passes

Search period start: 05 December 2019 00:00
Search period end: 15 December 2019 00:00
Orbit: 279 x 281 km, 53.0° (Epoch: 13 November)

Date Brightness Start Highest point End Pass type
(mag) Time Alt. Az. Time Alt. Az. Time Alt. Az.
05 Dec 5.0 05:13:05 10° N 05:14:03 12° NNE 05:15:01 10° NE visible
06 Dec 4.6 05:14:22 10° NNW 05:16:09 17° NNE 05:17:56 10° ENE visible
07 Dec 3.7 05:16:05 11° NNW 05:18:12 30° NNE 05:20:26 10° E visible
08 Dec 2.5 05:18:06 13° NW 05:20:11 64° NE 05:22:36 10° ESE visible
09 Dec 2.6 05:20:11 14° WNW 05:22:05 50° SW 05:24:28 10° SE visible
10 Dec 6.0 03:52:12 11° E 03:52:12 11° E 03:52:20 10° E visible
10 Dec 3.9 05:22:20 13° W 05:23:56 22° SW 05:25:55 10° S visible
11 Dec 5.9 03:54:25 12° ESE 03:54:25 12° ESE 03:54:42 10° ESE visible
11 Dec 4.8 05:25:07 10° WSW 05:25:42 11° SW 05:26:17 10° SW visible
12 Dec 5.9 03:56:43 10° SE 03:56:43 10° SE 03:56:45 10° SE visible
